カタログに戻る

THORAD AGENA D DEB

運用中LEO
NORAD 42510·DEBRIS·🇺🇸 United States

打ち上げ Apr 8, 1970 から Vandenberg Space Force Base

Loading…

次のパス (今後24時間)

TLE

古いSource: Space-Track

元期: Sep 3, 2026, 20:33 UTC

1 42510U 70025RQ  26246.85646806  .00000642  00000-0  64154-3 0  9994
2 42510 100.0393 262.7973 0003443 208.1083 151.9883 13.82242633643206

AllMySatでTHORAD AGENA D DEBをリアルタイム追跡

Download on the App Store